START_TIME,STEP,MOV.,M6,t_acc.,M7,t_acc.,M19,t_acc.,H36,t_acc.
1979-07-20 03:00:26.900 ,1,0,0.,12.0,0.,12.0,0.,12.0,0.,12.0
1979-07-20 03:00:38.900 ,1,0,0.,12.0,0.,12.0,0.,12.0,0.,12.0
1979-07-20 03:00:50.900 ,2,1,0.,12.0,0.,12.0,0.,12.0,0.,12.0
1979-07-20 03:01:02.900 ,2,1,0.,12.0,0.,12.0,0.,12.0,0.,12.0
1979-07-20 03:01:14.900 ,2,0,0.,12.0,0.,12.0,0.,12.0,0.,12.0
1979-07-20 03:01:26.900 ,2,0,0.,12.0,0.,12.0,0.,12.0,0.,12.0
1979-07-20 03:01:38.900 ,3,1,0.,12.0,0.,12.0,0.,12.0,0.,12.0
1979-07-20 03:01:50.900 ,3,1,0.,12.0,0.,12.0,0.,12.0,0.,12.0
1979-07-20 03:02:02.900 ,3,0,0.,12.0,0.,12.0,0.,12.0,0.,12.0
1979-07-20 03:02:14.900 ,3,0,0.,12.0,0.,12.0,0.,12.0,0.,12.0
1979-07-20 03:02:26.900 ,4,1,0.,12.0,0.,12.0,0.,12.0,0.,12.0
1979-07-20 03:02:38.900 ,4,1,0.,12.0,0.,12.0,0.,12.0,0.,12.0
1979-07-20 03:02:50.900 ,4,0,0.,12.0,0.,12.0,0.,12.0,0.,12.0
1979-07-20 03:03:02.900 ,4,0,0.,12.0,0.,12.0,0.,12.0,0.,12.0
1979-07-20 03:03:14.900 ,5,1,0.,12.0,0.,12.0,0.,12.0,0.,12.0
1979-07-20 03:03:26.900 ,5,1,0.,12.0,0.,12.0,0.,12.0,0.,12.0
1979-07-20 03:03:38.900 ,5,0,0.,12.0,0.,12.0,0.,12.0,0.,12.0
1979-07-20 03:03:50.900 ,5,0,0.,12.0,0.,12.0,0.,12.0,0.,12.0
1979-07-20 03:04:02.900 ,6,1,0.,12.0,0.,12.0,0.,12.0,0.,12.0
1979-07-20 03:04:14.900 ,6,1,0.,12.0,0.,12.0,0.,12.0,0.,12.0
1979-07-20 03:04:26.900 ,6,0,0.,12.0,0.,12.0,0.,12.0,0.,12.0
1979-07-20 03:04:38.900 ,6,0,0.,12.0,0.,12.0,0.,12.0,0.,12.0
1979-07-20 03:04:50.900 ,7,1,0.,12.0,0.,12.0,0.,12.0,0.,12.0
1979-07-20 03:05:02.900 ,7,1,0.,12.0,0.,12.0,0.,12.0,0.,12.0
1979-07-20 03:05:14.900 ,7,0,0.,12.0,0.,12.0,0.,12.0,0.,12.0
1979-07-20 03:05:26.900 ,7,0,0.,12.0,0.,12.0,0.,12.0,0.,12.0
1979-07-20 03:05:38.900 ,7,1,0.,12.0,0.,12.0,0.,12.0,0.,12.0
1979-07-20 03:05:50.900 ,7,1,0.,12.0,0.,12.0,0.,12.0,0.,12.0
1979-07-20 03:06:02.900 ,7,0,0.,12.0,0.,12.0,0.,12.0,0.,12.0
1979-07-20 03:06:14.900 ,7,0,0.,12.0,0.,12.0,0.,12.0,0.,12.0
1979-07-20 03:06:26.900 ,6,1,0.,12.0,0.,12.0,0.,12.0,0.,12.0
1979-07-20 03:06:38.900 ,6,1,0.,12.0,0.,12.0,0.,12.0,0.,12.0
1979-07-20 03:06:50.900 ,6,0,0.,12.0,0.,12.0,0.,12.0,0.,12.0
1979-07-20 03:07:02.900 ,6,0,0.,12.0,0.,12.0,0.,12.0,0.,12.0
1979-07-20 03:07:14.900 ,5,1,0.,12.0,0.,12.0,0.,12.0,0.,12.0
1979-07-20 03:07:26.900 ,5,1,0.,12.0,0.,12.0,0.,12.0,0.,12.0
1979-07-20 03:07:38.900 ,5,0,0.,12.0,0.,12.0,0.,12.0,0.,12.0
1979-07-20 03:07:50.900 ,5,0,0.,12.0,0.,12.0,0.,12.0,0.,12.0
1979-07-20 03:08:02.900 ,4,1,0.,12.0,0.,12.0,0.,12.0,0.,12.0
1979-07-20 03:08:14.900 ,4,1,0.,12.0,0.,12.0,0.,12.0,0.,12.0
1979-07-20 03:08:26.900 ,4,0,0.,12.0,0.,12.0,0.,12.0,0.,12.0
1979-07-20 03:08:38.900 ,4,0,0.,12.0,0.,12.0,0.,12.0,0.,12.0
1979-07-20 03:08:50.900 ,3,1,0.,12.0,0.,12.0,0.,12.0,0.,12.0
1979-07-20 03:09:02.900 ,3,1,0.,12.0,0.,12.0,0.,12.0,0.,12.0
1979-07-20 03:09:14.900 ,3,0,0.,12.0,0.,12.0,0.,12.0,0.,12.0
1979-07-20 03:09:26.900 ,3,0,0.,12.0,0.,12.0,0.,12.0,0.,12.0
1979-07-20 03:09:38.900 ,2,1,0.,12.0,0.,12.0,0.,12.0,0.,12.0
1979-07-20 03:09:50.900 ,2,1,0.,12.0,0.,12.0,0.,12.0,0.,12.0
1979-07-20 03:10:02.900 ,2,0,0.,12.0,0.,12.0,0.,12.0,0.,12.0
1979-07-20 03:10:14.900 ,2,0,0.,12.0,0.,12.0,0.,12.0,0.,12.0
1979-07-20 03:10:26.900 ,1,1,0.,12.0,0.,12.0,0.,12.0,0.,12.0
1979-07-20 03:10:38.900 ,1,1,0.,12.0,0.,12.0,0.,12.0,0.,12.0
1979-07-20 03:10:50.900 ,1,0,0.,12.0,0.,12.0,0.,12.0,0.,12.0
1979-07-20 03:11:02.900 ,1,0,0.,12.0,0.,12.0,0.,12.0,0.,12.0
1979-07-20 03:11:14.900 ,0,1,0.,12.0,0.,12.0,0.,12.0,0.,12.0
1979-07-20 03:11:26.900 ,0,1,0.,12.0,0.,12.0,0.,12.0,0.,12.0
1979-07-20 03:11:38.900 ,0,0,0.,12.0,0.,12.0,0.,12.0,0.,12.0
1979-07-20 03:11:50.900 ,0,0,0.,12.0,0.,12.0,0.,12.0,0.,12.0
1979-07-20 03:12:02.900 ,0,1,0.,12.0,0.,12.0,0.,12.0,0.,12.0
1979-07-20 03:12:14.900 ,0,1,0.,12.0,0.,12.0,0.,12.0,0.,12.0
1979-07-20 03:12:26.900 ,0,0,0.,12.0,0.,12.0,0.,12.0,0.,12.0
1979-07-20 03:12:38.900 ,0,0,0.,12.0,0.,12.0,0.,12.0,0.,12.0
1979-07-20 03:12:50.900 ,0,0,0.,12.0,0.,12.0,0.,12.0,0.,12.0
1979-07-20 03:13:02.900 ,0,0,0.,12.0,0.,12.0,0.,12.0,0.,12.0
1979-07-20 03:13:14.900 ,0,0,0.,12.0,0.,12.0,0.,12.0,0.,12.0
1979-07-20 03:13:26.900 ,0,0,0.,12.0,0.,12.0,0.,12.0,0.,12.0
1979-07-20 03:13:38.900 ,2,1,0.,12.0,0.,12.0,0.,12.0,0.,12.0
1979-07-20 03:13:50.900 ,2,1,0.,12.0,0.,12.0,0.,12.0,0.,12.0
1979-07-20 03:14:02.900 ,2,0,0.,12.0,0.,12.0,0.,12.0,0.,12.0
1979-07-20 03:14:14.900 ,2,0,0.,12.0,0.,12.0,0.,12.0,0.,12.0
1979-07-20 03:14:26.900 ,3,1,0.,12.0,0.,12.0,0.,12.0,0.,12.0
1979-07-20 03:14:38.900 ,3,1,0.,12.0,0.,12.0,0.,12.0,0.,12.0
1979-07-20 03:14:50.900 ,3,0,0.,12.0,0.,12.0,0.,12.0,0.,12.0
1979-07-20 03:15:02.900 ,3,0,0.,12.0,0.,12.0,0.,12.0,0.,12.0
1979-07-20 03:15:14.900 ,4,1,0.,12.0,0.,12.0,0.,12.0,0.,12.0
1979-07-20 03:15:26.900 ,4,1,0.,12.0,0.,12.0,0.,12.0,0.,12.0
1979-07-20 03:15:38.900 ,4,0,0.,12.0,0.,12.0,0.,12.0,0.,12.0
1979-07-20 03:15:50.900 ,4,0,0.,12.0,0.,12.0,0.,12.0,0.,12.0
1979-07-20 03:16:02.900 ,5,1,0.,12.0,0.,12.0,0.,12.0,0.,12.0
1979-07-20 03:16:14.900 ,5,1,0.,12.0,0.,12.0,0.,12.0,0.,12.0
1979-07-20 03:16:26.900 ,5,0,0.,12.0,0.,12.0,0.,12.0,0.,12.0
1979-07-20 03:16:38.900 ,5,0,0.,12.0,0.,12.0,0.,12.0,0.,12.0
1979-07-20 03:16:50.900 ,6,1,0.,12.0,0.,12.0,0.,12.0,0.,12.0
1979-07-20 03:17:02.900 ,6,1,0.,12.0,0.,12.0,0.,12.0,0.,12.0
1979-07-20 03:17:14.900 ,6,0,0.,12.0,0.,12.0,0.,12.0,0.,12.0
1979-07-20 03:17:26.900 ,6,0,0.,12.0,0.,12.0,0.,12.0,0.,12.0
1979-07-20 03:17:38.900 ,7,1,0.,12.0,0.,12.0,0.,12.0,0.,12.0
1979-07-20 03:17:50.900 ,7,1,0.,12.0,0.,12.0,0.,12.0,0.,12.0
1979-07-20 03:18:02.900 ,7,0,0.,12.0,0.,12.0,0.,12.0,0.,12.0
1979-07-20 03:18:14.900 ,7,0,0.,12.0,0.,12.0,0.,12.0,0.,12.0
1979-07-20 03:18:26.900 ,7,1,0.,12.0,0.,12.0,0.,12.0,0.,12.0
1979-07-20 03:18:38.900 ,7,1,0.,12.0,0.,12.0,0.,12.0,0.,12.0
1979-07-20 03:18:50.900 ,7,0,0.,12.0,0.,12.0,0.,12.0,0.,12.0
1979-07-20 03:19:02.900 ,7,0,0.,12.0,0.,12.0,0.,12.0,0.,12.0
1979-07-20 03:19:14.900 ,0,0,0.,12.0,0.,12.0,0.,12.0,0.,12.0
1979-07-20 03:19:26.900 ,0,0,0.,12.0,0.,12.0,0.,12.0,0.,12.0
1979-07-20 03:19:38.900 ,0,0,0.,12.0,0.,12.0,0.,12.0,0.,12.0
1979-07-20 03:19:50.900 ,0,0,0.,12.0,0.,12.0,0.,12.0,0.,12.0
1979-07-20 03:20:02.900 ,5,1,0.,12.0,0.,12.0,0.,12.0,0.,12.0
1979-07-20 03:20:14.900 ,5,1,0.,12.0,0.,12.0,0.,12.0,0.,12.0
1979-07-20 03:20:26.900 ,5,0,0.,12.0,0.,12.0,0.,12.0,0.,12.0
1979-07-20 03:20:38.900 ,5,0,0.,12.0,0.,12.0,0.,12.0,0.,12.0
1979-07-20 03:20:50.900 ,4,1,0.,12.0,0.,12.0,0.,12.0,0.,12.0
1979-07-20 03:21:02.900 ,4,1,0.,12.0,0.,12.0,0.,12.0,0.,12.0
1979-07-20 03:21:14.900 ,4,0,0.,12.0,0.,12.0,0.,12.0,0.,12.0
1979-07-20 03:21:26.900 ,4,0,0.,12.0,0.,12.0,0.,12.0,0.,12.0
1979-07-20 03:21:38.900 ,3,1,0.,12.0,0.,12.0,0.,12.0,0.,12.0
1979-07-20 03:21:50.900 ,3,1,0.,12.0,0.,12.0,0.,12.0,0.,12.0
1979-07-20 03:22:02.900 ,3,0,1.,12.0,0.,12.0,0.,12.0,0.,12.0
1979-07-20 03:22:14.900 ,3,0,0.,12.0,0.,12.0,0.,12.0,0.,12.0
1979-07-20 03:22:26.900 ,2,1,0.,12.0,0.,12.0,0.,12.0,0.,12.0
1979-07-20 03:22:38.900 ,2,1,0.,12.0,0.,12.0,0.,12.0,0.,12.0
1979-07-20 03:22:50.900 ,2,0,0.,12.0,0.,12.0,0.,12.0,0.,12.0
1979-07-20 03:23:02.900 ,2,0,1.,12.0,0.,12.0,0.,12.0,0.,12.0
1979-07-20 03:23:14.900 ,1,1,0.,12.0,0.,12.0,0.,12.0,0.,12.0
1979-07-20 03:23:26.900 ,1,1,0.,12.0,0.,12.0,0.,12.0,0.,12.0
1979-07-20 03:23:38.900 ,1,0,0.,12.0,0.,12.0,0.,12.0,0.,12.0
1979-07-20 03:23:50.900 ,1,0,0.,12.0,0.,12.0,0.,12.0,0.,12.0
1979-07-20 03:24:02.900 ,0,1,1.,12.0,0.,12.0,0.,12.0,0.,12.0
1979-07-20 03:24:14.900 ,0,1,0.,12.0,0.,12.0,0.,12.0,0.,12.0
1979-07-20 03:24:26.900 ,0,0,0.,12.0,0.,12.0,0.,12.0,0.,12.0
1979-07-20 03:24:38.900 ,0,0,0.,12.0,0.,12.0,0.,12.0,0.,12.0
1979-07-20 03:24:50.900 ,0,1,0.,12.0,0.,12.0,0.,12.0,0.,12.0
1979-07-20 03:25:02.900 ,0,1,0.,12.0,0.,12.0,0.,12.0,0.,12.0
1979-07-20 03:25:14.900 ,0,0,0.,12.0,0.,12.0,0.,12.0,0.,12.0
1979-07-20 03:25:26.900 ,0,0,0.,12.0,0.,12.0,0.,12.0,0.,12.0
1979-07-20 03:25:38.900 ,1,1,0.,12.0,0.,12.0,0.,12.0,0.,12.0
1979-07-20 03:25:50.900 ,1,1,0.,12.0,0.,12.0,0.,12.0,0.,12.0
1979-07-20 03:26:02.900 ,1,0,0.,12.0,0.,12.0,0.,12.0,0.,12.0
1979-07-20 03:26:14.900 ,1,0,0.,12.0,0.,12.0,0.,12.0,0.,12.0
1979-07-20 03:26:26.900 ,2,1,0.,12.0,0.,12.0,0.,12.0,0.,12.0
1979-07-20 03:26:38.900 ,2,1,0.,12.0,0.,12.0,0.,12.0,0.,12.0
1979-07-20 03:26:50.900 ,2,0,0.,12.0,0.,12.0,0.,12.0,0.,12.0
1979-07-20 03:27:02.900 ,2,0,0.,12.0,0.,12.0,0.,12.0,0.,12.0
1979-07-20 03:27:14.900 ,3,1,0.,12.0,0.,12.0,0.,12.0,0.,12.0
1979-07-20 03:27:26.900 ,3,1,0.,12.0,0.,12.0,0.,12.0,0.,12.0
1979-07-20 03:27:38.900 ,3,0,0.,12.0,0.,12.0,0.,12.0,0.,12.0
1979-07-20 03:27:50.900 ,3,0,0.,12.0,0.,12.0,0.,12.0,0.,12.0
1979-07-20 03:28:02.900 ,4,1,0.,12.0,0.,12.0,0.,12.0,0.,12.0
1979-07-20 03:28:14.900 ,4,1,0.,12.0,0.,12.0,0.,12.0,0.,12.0
1979-07-20 03:28:26.900 ,4,0,0.,12.0,0.,12.0,0.,12.0,0.,12.0
1979-07-20 03:28:38.900 ,4,0,0.,12.0,0.,12.0,0.,12.0,0.,12.0
1979-07-20 03:28:50.900 ,5,1,0.,12.0,0.,12.0,0.,12.0,0.,12.0
1979-07-20 03:29:02.900 ,5,1,0.,12.0,0.,12.0,0.,12.0,0.,12.0
1979-07-20 03:29:14.900 ,5,0,0.,12.0,0.,12.0,0.,12.0,0.,12.0
1979-07-20 03:29:26.900 ,5,0,0.,12.0,0.,12.0,0.,12.0,0.,12.0
1979-07-20 03:29:38.900 ,6,1,0.,12.0,0.,12.0,0.,12.0,0.,12.0
1979-07-20 03:29:50.900 ,6,1,0.,12.0,0.,12.0,0.,12.0,0.,12.0
1979-07-20 03:30:02.900 ,6,0,0.,12.0,0.,12.0,0.,12.0,0.,12.0
1979-07-20 03:30:14.900 ,6,0,0.,12.0,0.,12.0,0.,12.0,0.,12.0
1979-07-20 03:30:26.900 ,7,0,0.,12.0,0.,12.0,0.,12.0,0.,12.0
1979-07-20 03:30:38.900 ,7,0,0.,12.0,0.,12.0,0.,12.0,0.,12.0
1979-07-20 03:30:50.900 ,7,0,0.,12.0,0.,12.0,0.,12.0,0.,12.0
1979-07-20 03:31:02.900 ,7,0,0.,12.0,0.,12.0,0.,12.0,0.,12.0
1979-07-20 03:31:14.900 ,4,1,0.,12.0,0.,12.0,0.,12.0,0.,12.0
1979-07-20 03:31:26.900 ,4,1,0.,12.0,0.,12.0,0.,12.0,0.,12.0
1979-07-20 03:31:38.900 ,0,1,0.,12.0,0.,12.0,0.,12.0,0.,12.0
1979-07-20 03:31:50.900 ,0,1,0.,12.0,0.,12.0,0.,12.0,0.,12.0
1979-07-20 03:32:02.900 ,3,1,0.,12.0,0.,12.0,0.,12.0,0.,12.0
1979-07-20 03:32:14.900 ,3,1,0.,12.0,0.,12.0,0.,12.0,0.,12.0
1979-07-20 03:32:26.900 ,7,1,0.,12.0,0.,12.0,0.,12.0,0.,12.0
1979-07-20 03:32:38.900 ,7,1,0.,12.0,0.,12.0,0.,12.0,0.,12.0
1979-07-20 03:32:50.900 ,4,1,0.,12.0,0.,12.0,0.,12.0,0.,12.0
1979-07-20 03:33:02.900 ,4,1,0.,12.0,0.,12.0,0.,12.0,0.,12.0
1979-07-20 03:33:14.900 ,0,1,0.,12.0,0.,12.0,0.,12.0,0.,12.0
1979-07-20 03:33:26.900 ,0,1,0.,12.0,0.,12.0,0.,12.0,0.,12.0
1979-07-20 03:33:38.900 ,3,1,0.,12.0,0.,12.0,0.,12.0,0.,12.0
1979-07-20 03:33:50.900 ,3,1,0.,12.0,0.,12.0,0.,12.0,0.,12.0
1979-07-20 03:34:02.900 ,7,1,0.,12.0,0.,12.0,0.,12.0,0.,12.0
1979-07-20 03:34:14.900 ,7,1,0.,12.0,0.,12.0,0.,12.0,0.,12.0
1979-07-20 03:34:26.900 ,4,1,0.,12.0,0.,12.0,0.,12.0,0.,12.0
1979-07-20 03:34:38.900 ,4,1,0.,12.0,0.,12.0,0.,12.0,0.,12.0
1979-07-20 03:34:50.900 ,0,1,0.,12.0,0.,12.0,0.,12.0,0.,12.0
1979-07-20 03:35:02.900 ,0,1,0.,12.0,0.,12.0,0.,12.0,0.,12.0
1979-07-20 03:35:14.900 ,3,1,0.,12.0,0.,12.0,0.,12.0,0.,12.0
1979-07-20 03:35:26.900 ,3,1,0.,12.0,0.,12.0,0.,12.0,0.,12.0
1979-07-20 03:35:38.900 ,7,1,0.,12.0,0.,12.0,0.,12.0,0.,12.0
1979-07-20 03:35:50.900 ,7,1,0.,12.0,0.,12.0,0.,12.0,0.,12.0
1979-07-20 03:36:02.900 ,4,1,0.,12.0,0.,12.0,0.,12.0,0.,12.0
1979-07-20 03:36:14.900 ,4,1,0.,12.0,0.,12.0,0.,12.0,0.,12.0
1979-07-20 03:36:26.900 ,0,1,0.,12.0,0.,12.0,0.,12.0,0.,12.0
1979-07-20 03:36:38.900 ,0,1,0.,12.0,0.,12.0,0.,12.0,0.,12.0
1979-07-20 03:36:50.900 ,3,1,0.,12.0,0.,12.0,0.,12.0,0.,12.0
1979-07-20 03:37:02.900 ,3,1,0.,12.0,0.,12.0,0.,12.0,0.,12.0
1979-07-20 03:37:14.900 ,7,1,0.,12.0,0.,12.0,0.,12.0,0.,12.0
1979-07-20 03:37:26.900 ,7,1,0.,12.0,0.,12.0,0.,12.0,0.,12.0
1979-07-20 03:37:38.900 ,4,1,0.,12.0,0.,12.0,0.,12.0,0.,12.0
1979-07-20 03:37:50.900 ,4,1,0.,12.0,0.,12.0,0.,12.0,0.,12.0
1979-07-20 03:38:02.900 ,0,1,0.,12.0,0.,12.0,0.,12.0,0.,12.0
1979-07-20 03:38:14.900 ,0,1,0.,12.0,0.,12.0,0.,12.0,0.,12.0
1979-07-20 03:39:14.900 ,0,0,0.,12.0,0.,12.0,0.,12.0,0.,12.0
1979-07-20 03:39:26.900 ,0,0,0.,12.0,0.,12.0,0.,12.0,0.,12.0
1979-07-20 03:39:38.900 ,0,1,0.,12.0,0.,12.0,0.,12.0,0.,12.0
1979-07-20 03:39:50.900 ,0,1,0.,12.0,0.,12.0,0.,12.0,0.,12.0
1979-07-20 03:40:02.900 ,3,1,0.,12.0,0.,12.0,0.,12.0,0.,12.0
1979-07-20 03:40:14.900 ,3,1,0.,12.0,0.,12.0,0.,12.0,0.,12.0
1979-07-20 03:40:26.900 ,7,1,0.,12.0,0.,12.0,0.,12.0,0.,12.0
1979-07-20 03:40:38.900 ,7,1,0.,12.0,0.,12.0,0.,12.0,0.,12.0
1979-07-20 03:40:26.900 ,7,1,0.,12.0,0.,12.0,0.,12.0,0.,12.0
1979-07-20 03:40:38.900 ,7,1,0.,12.0,0.,12.0,0.,12.0,0.,12.0
1979-07-20 03:40:50.900 ,4,1,0.,12.0,0.,12.0,0.,12.0,0.,12.0
1979-07-20 03:41:02.900 ,4,1,0.,12.0,0.,12.0,0.,12.0,0.,12.0
1979-07-20 03:41:14.900 ,0,1,0.,12.0,0.,12.0,0.,12.0,0.,12.0
1979-07-20 03:41:26.900 ,0,1,0.,12.0,0.,12.0,0.,12.0,0.,12.0
1979-07-20 03:41:38.900 ,0,0,0.,12.0,0.,12.0,0.,12.0,0.,12.0
1979-07-20 03:41:50.900 ,0,0,0.,12.0,0.,12.0,0.,12.0,0.,12.0
1979-07-20 03:42:02.900 ,0,0,0.,12.0,0.,12.0,0.,12.0,0.,12.0
1979-07-20 03:42:14.900 ,0,0,0.,12.0,0.,12.0,0.,12.0,0.,12.0
1979-07-20 03:42:26.900 ,0,0,0.,12.0,0.,12.0,0.,12.0,0.,12.0
1979-07-20 03:42:38.900 ,0,0,0.,12.0,0.,12.0,0.,12.0,0.,12.0
1979-07-20 03:42:50.900 ,0,0,0.,12.0,0.,12.0,0.,12.0,0.,12.0
1979-07-20 03:43:02.900 ,0,0,0.,12.0,0.,12.0,0.,12.0,0.,12.0
1979-07-20 03:43:14.900 ,4,1,0.,12.0,0.,12.0,0.,12.0,0.,12.0
1979-07-20 03:43:26.900 ,4,1,0.,12.0,0.,12.0,0.,12.0,0.,12.0
1979-07-20 03:43:38.900 ,4,0,0.,12.0,0.,12.0,0.,12.0,0.,12.0
1979-07-20 03:43:50.900 ,4,0,0.,12.0,0.,12.0,0.,12.0,0.,12.0
1979-07-20 03:44:02.900 ,3,1,0.,12.0,0.,12.0,0.,12.0,0.,12.0
1979-07-20 03:44:14.900 ,3,1,0.,12.0,0.,12.0,0.,12.0,0.,12.0
1979-07-20 03:44:26.900 ,3,0,0.,12.0,0.,12.0,0.,12.0,0.,12.0
1979-07-20 03:44:38.900 ,3,0,0.,12.0,0.,12.0,0.,12.0,0.,12.0
1979-07-20 03:44:50.900 ,2,1,0.,12.0,0.,12.0,0.,12.0,0.,12.0
1979-07-20 03:45:02.900 ,2,1,0.,12.0,0.,12.0,0.,12.0,0.,12.0
1979-07-20 03:45:14.900 ,2,0,0.,12.0,0.,12.0,0.,12.0,0.,12.0
1979-07-20 03:45:26.900 ,2,0,0.,12.0,0.,12.0,0.,12.0,0.,12.0
1979-07-20 03:45:38.900 ,1,1,1.,12.0,0.,12.0,0.,12.0,0.,12.0
1979-07-20 03:45:50.900 ,1,1,0.,12.0,0.,12.0,0.,12.0,0.,12.0
1979-07-20 03:46:02.900 ,1,0,0.,12.0,0.,12.0,0.,12.0,0.,12.0
1979-07-20 03:46:14.900 ,1,0,0.,12.0,0.,12.0,0.,12.0,0.,12.0
1979-07-20 03:46:26.900 ,0,1,0.,12.0,0.,12.0,0.,12.0,0.,12.0
1979-07-20 03:46:38.900 ,0,1,0.,12.0,0.,12.0,0.,12.0,0.,12.0
1979-07-20 03:46:50.900 ,0,0,0.,12.0,0.,12.0,0.,12.0,0.,12.0
1979-07-20 03:47:02.900 ,0,0,0.,12.0,0.,12.0,0.,12.0,0.,12.0
1979-07-20 03:47:14.900 ,0,1,0.,12.0,0.,12.0,0.,12.0,0.,12.0
1979-07-20 03:47:26.900 ,0,1,0.,12.0,0.,12.0,0.,12.0,0.,12.0
1979-07-20 03:47:38.900 ,0,0,0.,12.0,0.,12.0,0.,12.0,0.,12.0
1979-07-20 03:47:50.900 ,0,0,0.,12.0,0.,12.0,0.,12.0,0.,12.0
1979-07-20 03:48:02.900 ,1,1,0.,12.0,0.,12.0,0.,12.0,0.,12.0
1979-07-20 03:48:14.900 ,1,1,0.,12.0,0.,12.0,0.,12.0,0.,12.0
1979-07-20 03:48:26.900 ,1,0,0.,12.0,0.,12.0,0.,12.0,0.,12.0
1979-07-20 03:48:38.900 ,1,0,0.,12.0,0.,12.0,0.,12.0,0.,12.0
1979-07-20 03:48:50.900 ,2,1,0.,12.0,0.,12.0,0.,12.0,0.,12.0
1979-07-20 03:49:02.900 ,2,1,0.,12.0,0.,12.0,0.,12.0,0.,12.0
1979-07-20 03:49:14.900 ,2,0,0.,12.0,0.,12.0,0.,12.0,0.,12.0
1979-07-20 03:49:26.900 ,2,0,0.,12.0,0.,12.0,0.,12.0,0.,12.0
1979-07-20 03:49:38.900 ,3,1,0.,12.0,0.,12.0,0.,12.0,0.,12.0
1979-07-20 03:49:50.900 ,3,1,0.,12.0,0.,12.0,0.,12.0,0.,12.0
1979-07-20 03:50:02.900 ,3,0,0.,12.0,0.,12.0,0.,12.0,0.,12.0
1979-07-20 03:50:14.900 ,3,0,0.,12.0,0.,12.0,0.,12.0,0.,12.0
1979-07-20 03:50:26.900 ,4,1,0.,12.0,0.,12.0,0.,12.0,0.,12.0
1979-07-20 03:50:38.900 ,4,1,0.,12.0,0.,12.0,0.,12.0,0.,12.0
1979-07-20 03:50:50.900 ,4,0,0.,12.0,0.,12.0,0.,12.0,0.,12.0
1979-07-20 03:51:02.900 ,4,0,0.,12.0,0.,12.0,0.,12.0,0.,12.0
1979-07-20 03:51:14.900 ,5,1,0.,12.0,0.,12.0,0.,12.0,0.,12.0
1979-07-20 03:51:26.900 ,5,1,0.,12.0,0.,12.0,0.,12.0,0.,12.0
1979-07-20 03:51:38.900 ,5,0,0.,12.0,0.,12.0,0.,12.0,0.,12.0
1979-07-20 03:51:50.900 ,5,0,0.,12.0,0.,12.0,0.,12.0,0.,12.0
1979-07-20 03:52:02.900 ,6,1,0.,12.0,0.,12.0,0.,12.0,0.,12.0
1979-07-20 03:52:14.900 ,6,1,0.,12.0,0.,12.0,0.,12.0,0.,12.0
1979-07-20 03:52:26.900 ,6,0,0.,12.0,0.,12.0,0.,12.0,0.,12.0
1979-07-20 03:52:38.900 ,6,0,0.,12.0,0.,12.0,0.,12.0,0.,12.0
1979-07-20 03:52:50.900 ,7,1,0.,12.0,0.,12.0,0.,12.0,0.,12.0
1979-07-20 03:53:02.900 ,7,1,0.,12.0,0.,12.0,0.,12.0,0.,12.0
1979-07-20 03:53:14.900 ,7,0,0.,12.0,0.,12.0,0.,12.0,0.,12.0
1979-07-20 03:53:26.900 ,7,0,0.,12.0,0.,12.0,0.,12.0,0.,12.0
1979-07-20 03:53:38.900 ,7,1,0.,12.0,0.,12.0,0.,12.0,0.,12.0
1979-07-20 03:53:50.900 ,7,1,0.,12.0,0.,12.0,0.,12.0,0.,12.0
1979-07-20 03:54:02.900 ,7,0,0.,12.0,0.,12.0,0.,12.0,0.,12.0
1979-07-20 03:54:14.900 ,7,0,0.,12.0,0.,12.0,0.,12.0,0.,12.0
1979-07-20 03:54:26.900 ,6,1,0.,12.0,0.,12.0,0.,12.0,0.,12.0
1979-07-20 03:54:38.900 ,6,1,0.,12.0,0.,12.0,0.,12.0,0.,12.0
1979-07-20 03:54:50.900 ,6,0,0.,12.0,0.,12.0,0.,12.0,0.,12.0
1979-07-20 03:55:02.900 ,6,0,0.,12.0,0.,12.0,0.,12.0,0.,12.0
1979-07-20 03:55:14.900 ,5,1,0.,12.0,0.,12.0,0.,12.0,0.,12.0
1979-07-20 03:55:26.900 ,5,1,0.,12.0,0.,12.0,0.,12.0,0.,12.0
1979-07-20 03:55:38.900 ,5,0,0.,12.0,0.,12.0,0.,12.0,0.,12.0
1979-07-20 03:55:50.900 ,5,0,0.,12.0,0.,12.0,0.,12.0,0.,12.0
1979-07-20 03:56:02.900 ,4,1,0.,12.0,0.,12.0,0.,12.0,0.,12.0
1979-07-20 03:56:14.900 ,4,1,0.,12.0,0.,12.0,0.,12.0,0.,12.0
1979-07-20 03:56:26.900 ,4,0,0.,12.0,0.,12.0,0.,12.0,0.,12.0
1979-07-20 03:56:38.900 ,4,0,0.,12.0,0.,12.0,0.,12.0,0.,12.0
1979-07-20 03:56:50.900 ,3,1,0.,12.0,0.,12.0,0.,12.0,0.,12.0
1979-07-20 03:57:02.900 ,3,1,0.,12.0,0.,12.0,0.,12.0,0.,12.0
1979-07-20 03:57:14.900 ,3,0,0.,12.0,0.,12.0,0.,12.0,0.,12.0
1979-07-20 03:57:26.900 ,3,0,0.,12.0,0.,12.0,0.,12.0,0.,12.0
1979-07-20 03:57:38.900 ,2,1,0.,12.0,0.,12.0,0.,12.0,0.,12.0
1979-07-20 03:57:50.900 ,2,1,0.,12.0,0.,12.0,0.,12.0,0.,12.0
1979-07-20 03:58:02.900 ,2,0,0.,12.0,0.,12.0,0.,12.0,0.,12.0
1979-07-20 03:58:14.900 ,2,0,0.,12.0,0.,12.0,0.,12.0,0.,12.0
1979-07-20 03:58:26.900 ,1,1,0.,12.0,0.,12.0,0.,12.0,0.,12.0
1979-07-20 03:58:38.900 ,1,1,0.,12.0,0.,12.0,0.,12.0,0.,12.0
1979-07-20 03:58:50.900 ,1,0,0.,12.0,0.,12.0,0.,12.0,0.,12.0
1979-07-20 03:59:02.900 ,1,0,0.,12.0,0.,12.0,0.,12.0,0.,12.0
1979-07-20 03:59:14.900 ,0,1,0.,12.0,0.,12.0,0.,12.0,0.,12.0
1979-07-20 03:59:26.900 ,0,1,0.,12.0,0.,12.0,0.,12.0,0.,12.0
1979-07-20 03:59:38.900 ,0,0,0.,12.0,0.,12.0,0.,12.0,0.,12.0
1979-07-20 03:59:50.900 ,0,0,0.,12.0,0.,12.0,0.,12.0,0.,12.0
1979-07-20 04:00:02.900 ,0,1,0.,12.0,0.,12.0,0.,12.0,0.,12.0
1979-07-20 04:00:14.900 ,0,1,0.,12.0,0.,12.0,0.,12.0,0.,12.0
1979-07-20 04:00:26.900 ,0,0,0.,12.0,0.,12.0,0.,12.0,0.,12.0
1979-07-20 04:00:38.900 ,0,0,0.,12.0,0.,12.0,0.,12.0,0.,12.0
1979-07-20 04:00:50.900 ,1,1,0.,12.0,0.,12.0,0.,12.0,0.,12.0
1979-07-20 04:01:02.900 ,1,1,0.,12.0,0.,12.0,0.,12.0,0.,12.0
1979-07-20 04:01:14.900 ,1,0,0.,12.0,0.,12.0,0.,12.0,0.,12.0
1979-07-20 04:01:26.900 ,1,0,0.,12.0,0.,12.0,0.,12.0,0.,12.0
1979-07-20 04:01:38.900 ,2,1,0.,12.0,0.,12.0,0.,12.0,0.,12.0
1979-07-20 04:01:50.900 ,2,1,0.,12.0,0.,12.0,0.,12.0,0.,12.0
1979-07-20 04:02:02.900 ,2,0,0.,12.0,0.,12.0,0.,12.0,0.,12.0
1979-07-20 04:02:14.900 ,2,0,0.,12.0,0.,12.0,0.,12.0,0.,12.0
1979-07-20 04:02:26.900 ,3,1,0.,12.0,0.,12.0,0.,12.0,0.,12.0
1979-07-20 04:02:38.900 ,3,1,0.,12.0,0.,12.0,0.,12.0,0.,12.0
1979-07-20 04:02:50.900 ,3,0,0.,12.0,0.,12.0,0.,12.0,0.,12.0
1979-07-20 04:03:02.900 ,3,0,0.,12.0,0.,12.0,0.,12.0,0.,12.0
1979-07-20 04:03:14.900 ,4,1,1.,12.0,0.,12.0,0.,12.0,0.,12.0
1979-07-20 04:03:26.900 ,4,1,0.,12.0,0.,12.0,0.,12.0,0.,12.0
1979-07-20 04:03:38.900 ,4,0,0.,12.0,0.,12.0,0.,12.0,0.,12.0
1979-07-20 04:03:50.900 ,4,0,0.,12.0,0.,12.0,0.,12.0,0.,12.0
1979-07-20 04:04:02.900 ,5,1,0.,12.0,0.,12.0,0.,12.0,0.,12.0
1979-07-20 04:04:14.900 ,5,1,0.,12.0,0.,12.0,0.,12.0,0.,12.0
1979-07-20 04:04:26.900 ,5,0,0.,12.0,0.,12.0,0.,12.0,0.,12.0
1979-07-20 04:04:38.900 ,5,0,0.,12.0,0.,12.0,0.,12.0,0.,12.0
1979-07-20 04:04:50.900 ,6,1,0.,12.0,0.,12.0,0.,12.0,0.,12.0
1979-07-20 04:05:02.900 ,6,1,0.,12.0,0.,12.0,0.,12.0,0.,12.0
1979-07-20 04:05:14.900 ,6,0,0.,12.0,0.,12.0,0.,12.0,0.,12.0
1979-07-20 04:05:26.900 ,6,0,0.,12.0,0.,12.0,0.,12.0,0.,12.0
1979-07-20 04:05:38.900 ,7,1,0.,12.0,0.,12.0,0.,12.0,0.,12.0
1979-07-20 04:05:50.900 ,7,1,0.,12.0,0.,12.0,0.,12.0,0.,12.0
1979-07-20 04:06:02.900 ,7,0,0.,12.0,0.,12.0,0.,12.0,0.,12.0
1979-07-20 04:06:14.900 ,7,0,0.,12.0,0.,12.0,0.,12.0,0.,12.0
1979-07-20 04:06:26.900 ,7,1,0.,12.0,0.,12.0,0.,12.0,0.,12.0
1979-07-20 04:06:38.900 ,7,1,0.,12.0,0.,12.0,0.,12.0,0.,12.0
1979-07-20 04:06:50.900 ,7,0,0.,12.0,0.,12.0,0.,12.0,0.,12.0
1979-07-20 04:07:02.900 ,7,0,0.,12.0,0.,12.0,0.,12.0,0.,12.0
1979-07-20 04:07:14.900 ,6,1,0.,12.0,0.,12.0,0.,12.0,0.,12.0
1979-07-20 04:07:26.900 ,6,1,1.,12.0,0.,12.0,0.,12.0,0.,12.0
1979-07-20 04:07:38.900 ,6,0,0.,12.0,0.,12.0,0.,12.0,0.,12.0
1979-07-20 04:07:50.900 ,6,0,0.,12.0,0.,12.0,0.,12.0,0.,12.0
1979-07-20 04:08:02.900 ,5,1,0.,12.0,0.,12.0,0.,12.0,0.,12.0
1979-07-20 04:08:14.900 ,5,1,0.,12.0,0.,12.0,0.,12.0,0.,12.0
1979-07-20 04:08:26.900 ,5,0,0.,12.0,0.,12.0,0.,12.0,0.,12.0
1979-07-20 04:08:38.900 ,5,0,0.,12.0,0.,12.0,0.,12.0,0.,12.0
1979-07-20 04:08:50.900 ,4,1,0.,12.0,0.,12.0,0.,12.0,0.,12.0
1979-07-20 04:09:02.900 ,4,1,0.,12.0,0.,12.0,0.,12.0,0.,12.0
1979-07-20 04:09:14.900 ,4,0,0.,12.0,0.,12.0,0.,12.0,0.,12.0
1979-07-20 04:09:26.900 ,4,0,0.,12.0,0.,12.0,0.,12.0,0.,12.0
1979-07-20 04:09:38.900 ,3,1,0.,12.0,0.,12.0,0.,12.0,0.,12.0
1979-07-20 04:09:50.900 ,3,1,0.,12.0,0.,12.0,0.,12.0,0.,12.0
1979-07-20 04:10:02.900 ,3,0,0.,12.0,0.,12.0,0.,12.0,0.,12.0
1979-07-20 04:10:14.900 ,3,0,1.,12.0,0.,12.0,0.,12.0,0.,12.0
1979-07-20 04:10:26.900 ,2,1,0.,12.0,0.,12.0,0.,12.0,0.,12.0
1979-07-20 04:10:38.900 ,2,1,0.,12.0,0.,12.0,0.,12.0,0.,12.0
1979-07-20 04:10:50.900 ,2,0,0.,12.0,0.,12.0,0.,12.0,0.,12.0
1979-07-20 04:11:02.900 ,2,0,0.,12.0,0.,12.0,0.,12.0,0.,12.0
1979-07-20 04:11:14.900 ,1,1,0.,12.0,0.,12.0,0.,12.0,0.,12.0
1979-07-20 04:11:26.900 ,1,1,0.,12.0,0.,12.0,0.,12.0,0.,12.0
1979-07-20 04:11:38.900 ,1,0,0.,12.0,0.,12.0,0.,12.0,0.,12.0
1979-07-20 04:11:50.900 ,1,0,0.,12.0,0.,12.0,0.,12.0,0.,12.0
1979-07-20 04:12:02.900 ,0,1,0.,12.0,0.,12.0,0.,12.0,0.,12.0
1979-07-20 04:12:14.900 ,0,1,0.,12.0,0.,12.0,0.,12.0,0.,12.0
1979-07-20 04:12:26.900 ,0,0,0.,12.0,0.,12.0,0.,12.0,0.,12.0
1979-07-20 04:12:38.900 ,0,0,1.,12.0,0.,12.0,0.,12.0,0.,12.0
1979-07-20 04:12:50.900 ,0,1,0.,12.0,0.,12.0,0.,12.0,0.,12.0
1979-07-20 04:13:02.900 ,0,1,0.,12.0,0.,12.0,0.,12.0,0.,12.0
1979-07-20 04:13:14.900 ,0,0,0.,12.0,0.,12.0,0.,12.0,0.,12.0
1979-07-20 04:13:26.900 ,0,0,1.,12.0,0.,12.0,0.,12.0,0.,12.0
1979-07-20 04:13:38.900 ,1,1,0.,12.0,0.,12.0,0.,12.0,0.,12.0
1979-07-20 04:13:50.900 ,1,1,0.,12.0,0.,12.0,0.,12.0,0.,12.0
1979-07-20 04:14:02.900 ,1,0,0.,12.0,0.,12.0,0.,12.0,0.,12.0
1979-07-20 04:14:14.900 ,1,0,0.,12.0,0.,12.0,0.,12.0,0.,12.0
1979-07-20 04:14:26.900 ,2,1,0.,12.0,0.,12.0,0.,12.0,0.,12.0
1979-07-20 04:14:38.900 ,2,1,0.,12.0,0.,12.0,0.,12.0,0.,12.0
1979-07-20 04:14:50.900 ,2,0,0.,12.0,0.,12.0,0.,12.0,0.,12.0
1979-07-20 04:15:02.900 ,2,0,0.,12.0,0.,12.0,0.,12.0,0.,12.0
1979-07-20 04:15:14.900 ,3,1,0.,12.0,0.,12.0,0.,12.0,0.,12.0
1979-07-20 04:15:26.900 ,3,1,0.,12.0,0.,12.0,0.,12.0,0.,12.0
1979-07-20 04:15:38.900 ,3,0,0.,12.0,0.,12.0,0.,12.0,0.,12.0
1979-07-20 04:15:50.900 ,3,0,0.,12.0,0.,12.0,0.,12.0,0.,12.0
1979-07-20 04:16:02.900 ,4,1,0.,12.0,0.,12.0,0.,12.0,0.,12.0
1979-07-20 04:16:14.900 ,4,1,0.,12.0,0.,12.0,0.,12.0,0.,12.0
1979-07-20 04:16:26.900 ,4,0,0.,12.0,0.,12.0,0.,12.0,0.,12.0
1979-07-20 04:16:38.900 ,4,0,0.,12.0,0.,12.0,0.,12.0,0.,12.0
1979-07-20 04:16:50.900 ,5,1,0.,12.0,0.,12.0,0.,12.0,0.,12.0
1979-07-20 04:17:02.900 ,5,1,0.,12.0,0.,12.0,0.,12.0,0.,12.0
1979-07-20 04:17:14.900 ,5,0,0.,12.0,0.,12.0,0.,12.0,0.,12.0
1979-07-20 04:17:26.900 ,5,0,0.,12.0,0.,12.0,0.,12.0,0.,12.0
1979-07-20 04:17:38.900 ,6,1,0.,12.0,0.,12.0,0.,12.0,0.,12.0
1979-07-20 04:17:50.900 ,6,1,0.,12.0,0.,12.0,0.,12.0,0.,12.0